Location: Boiro
(42.6475°N, 8.8834°W)
Time: 22:56:15
(UTC+01:00)

A-11 Canister half - Pass Details

Date: 02 December 2021
Orbit: 1516 x 1684 km, 47.2° (Epoch: 18 January)

Event Time Altitude Azimuth Distance (km) Brightness Sun altitude
Rises 15:10:45 0° 296° (WNW) 4,907 11.7 20.9°
Reaches altitude 10° 15:13:56 10° 293° (WNW) 3,930 11.3 20.6°
Maximum altitude 15:23:49 60° 217° (SW) 1,882 10.4 19.8°
Drops below altitude 10° 15:33:40 10° 141° (SE) 3,925 11.5 18.8°
Sets 15:36:52 0° 137° (SE) 4,899 11.8 18.5°
